Location: Unspecified
(48.7670°N, 0.0000°E)
Time: 07:25:56
(UTC+00:00)

Altair - Pass Details

Date: 01 July 2019
Orbit: 1501 x 1683 km, 47.2° (Epoch: 21 July)

Event Time Altitude Azimuth Distance (km) Brightness Sun altitude
Rises 22:55:58 0° 288° (WNW) 4,769 10.6 -16.6°
Reaches altitude 10° 22:59:07 10° 283° (WNW) 3,808 9.9 -16.7°
Maximum altitude 23:08:19 49° 213° (SSW) 2,018 7.8 -17.1°
Enters shadow 23:14:58 21° 150° (SSE) 3,122 8.5 -17.3°
Drops below altitude 10° 23:17:47 10° 142° (SE) 3,917 - -17.4°
Sets 23:21:06 0° 138° (SE) 4,915 - -17.5°
